| time (UTC) | temp F | wind direction | speed MPH | gust MPH | rain 1hr in | rain 24hr in | rain mn in | humidity % | barometer mb |
| 20260506013059 | 75 | 209 | 2.0 | 7.0 | 0.00 | 0.08 | 0.08 | 44 | 1008.3 |
| 20260506011602 | 75 | 237 | 2.0 | 11.0 | 0.00 | 0.08 | 0.08 | 43 | 1008.1 |
| 20260506010058 | 76 | 188 | 3.0 | 8.0 | 0.00 | 0.08 | 0.08 | 42 | 1008.0 |
| 20260506004558 | 76 | 221 | 1.0 | 5.0 | 0.00 | 0.08 | 0.08 | 39 | 1007.9 |
| 20260506003057 | 76 | 198 | 2.0 | 4.0 | 0.00 | 0.08 | 0.08 | 38 | 1007.8 |
| 20260506001607 | 77 | 237 | 1.0 | 10.0 | 0.00 | 0.08 | 0.08 | 37 | 1007.6 |
| 20260506000122 | 77 | 216 | 5.0 | 10.0 | 0.00 | 0.08 | 0.08 | 36 | 1007.4 |
| 20260505234607 | 78 | 241 | 3.0 | 9.0 | 0.00 | 0.08 | 0.08 | 35 | 1007.4 |
| 20260505233055 | 78 | 216 | 3.0 | 11.0 | 0.00 | 0.08 | 0.08 | 35 | 1007.4 |
| 20260505231557 | 79 | 248 | 2.0 | 10.0 | 0.00 | 0.08 | 0.08 | 34 | 1007.1 |
| 20260505230053 | 79 | 236 | 5.0 | 13.0 | 0.00 | 0.08 | 0.08 | 33 | 1007.0 |
| 20260505224553 | 79 | 257 | 4.0 | 12.0 | 0.00 | 0.08 | 0.08 | 32 | 1006.8 |
| 20260505223051 | 80 | 237 | 6.0 | 14.0 | 0.00 | 0.08 | 0.08 | 31 | 1006.6 |
| 20260505221557 | 80 | 225 | 6.0 | 17.0 | 0.00 | 0.08 | 0.08 | 30 | 1006.4 |
| 20260505220104 | 81 | 234 | 9.0 | 16.0 | 0.00 | 0.08 | 0.08 | 30 | 1006.3 |
| 20260505214559 | 81 | 176 | 4.0 | 14.0 | 0.00 | 0.08 | 0.08 | 33 | 1006.4 |
| 20260505213048 | 81 | 210 | 7.0 | 17.0 | 0.00 | 0.08 | 0.08 | 32 | 1006.2 |
| 20260505211616 | 81 | 186 | 5.0 | 15.0 | 0.00 | 0.08 | 0.08 | 32 | 1006.0 |
| 20260505210048 | 81 | 143 | 6.0 | 18.0 | 0.00 | 0.08 | 0.08 | 33 | 1005.9 |
| 20260505204557 | 81 | 177 | 5.0 | 15.0 | 0.00 | 0.08 | 0.08 | 33 | 1005.9 |
| 20260505203045 | 82 | 213 | 5.0 | 18.0 | 0.00 | 0.08 | 0.08 | 33 | 1006.1 |
| 20260505201543 | 81 | 265 | 6.0 | 26.0 | 0.00 | 0.08 | 0.08 | 32 | 1006.3 |
| 20260505200042 | 82 | 218 | 6.0 | 15.0 | 0.00 | 0.08 | 0.08 | 34 | 1006.4 |
| 20260505194540 | 82 | 243 | 7.0 | 17.0 | 0.00 | 0.08 | 0.08 | 33 | 1006.4 |
| 20260505193039 | 82 | 200 | 7.0 | 17.0 | 0.00 | 0.08 | 0.08 | 34 | 1006.6 |
| 20260505191537 | 82 | 218 | 4.0 | 16.0 | 0.00 | 0.08 | 0.08 | 36 | 1006.7 |
| 20260505190036 | 81 | 239 | 5.0 | 14.0 | 0.00 | 0.08 | 0.08 | 35 | 1006.8 |
| 20260505184540 | 81 | 215 | 1.0 | 11.0 | 0.00 | 0.08 | 0.08 | 37 | 1006.9 |
| 20260505183030 | 82 | 255 | 4.0 | 11.0 | 0.00 | 0.08 | 0.08 | 38 | 1007.5 |
| 20260505181532 | 81 | 214 | 4.0 | 12.0 | 0.00 | 0.08 | 0.08 | 38 | 1007.6 |
| 20260505180026 | 81 | 217 | 6.0 | 15.0 | 0.00 | 0.08 | 0.08 | 39 | 1007.6 |
| 20260505174535 | 81 | 190 | 3.0 | 7.0 | 0.00 | 0.08 | 0.08 | 42 | 1007.7 |
| 20260505173020 | 80 | 216 | 4.0 | 13.0 | 0.00 | 0.08 | 0.08 | 43 | 1007.9 |
| 20260505171529 | 80 | 202 | 2.0 | 11.0 | 0.00 | 0.08 | 0.08 | 43 | 1007.9 |
| 20260505170016 | 79 | 238 | 3.0 | 9.0 | 0.00 | 0.08 | 0.08 | 44 | 1008.0 |
| 20260505164515 | 78 | 347 | 3.0 | 10.0 | 0.00 | 0.08 | 0.08 | 45 | 1008.4 |
| 20260505163014 | 79 | 233 | 2.0 | 10.0 | 0.00 | 0.08 | 0.08 | 46 | 1008.5 |
| 20260505161510 | 78 | 229 | 1.0 | 10.0 | 0.00 | 0.08 | 0.08 | 47 | 1008.8 |
| 20260505153101 | 75 | 164 | 2.0 | 7.0 | 0.00 | 0.08 | 0.08 | 52 | 1009.3 |
| 20260505151602 | 74 | 280 | 3.0 | 9.0 | 0.00 | 0.08 | 0.08 | 51 | 1009.4 |
| 20260505124519 | 55 | 135 | 0.0 | 0.0 | 0.00 | 0.08 | 0.08 | 95 | 1010.1 |
| 20260505123017 | 54 | 135 | 0.0 | 0.0 | 0.00 | 0.08 | 0.08 | 96 | 1010.1 |
| 20260505121512 | 52 | 135 | 0.0 | 3.0 | 0.08 | 0.08 | 0.08 | 96 | 1010.4 |
| 20260505120008 | 50 | 135 | 0.0 | 0.0 | 0.08 | 0.08 | 0.08 | 95 | 1010.4 |
| 20260505114508 | 48 | 135 | 0.0 | 3.0 | 0.08 | 0.08 | 0.08 | 95 | 1010.0 |
| 20260505113004 | 47 | 133 | 0.0 | 3.0 | 0.08 | 0.08 | 0.08 | 94 | 1009.8 |
| 20260505111504 | 47 | 193 | 0.0 | 1.0 | 0.00 | 0.00 | 0.00 | 94 | 1010.5 |
| 20260505101604 | 44 | 193 | 0.0 | 0.0 | 0.00 | 0.00 | 0.00 | 94 | 1010.0 |
| 20260505100058 | 43 | 193 | 0.0 | 0.0 | 0.00 | 0.00 | 0.00 | 93 | 1009.8 |
| 20260505094557 | 43 | 193 | 0.0 | 0.0 | 0.00 | 0.00 | 0.00 | 93 | 1009.7 |
| 20260505093056 | 44 | 193 | 0.0 | 0.0 | 0.00 | 0.00 | 0.00 | 93 | 1009.6 |
| 20260505091557 | 44 | 193 | 0.0 | 0.0 | 0.00 | 0.00 | 0.00 | 93 | 1009.5 |
| 20260505090057 | 44 | 193 | 0.0 | 0.0 | 0.00 | 0.00 | 0.00 | 93 | 1009.2 |
| 20260505084602 | 44 | 193 | 0.0 | 0.0 | 0.00 | 0.00 | 0.00 | 93 | 1009.2 |
| 20260505083105 | 44 | 193 | 0.0 | 0.0 | 0.00 | 0.00 | 0.00 | 92 | 1009.3 |
| 20260505081550 | 44 | 193 | 0.0 | 0.0 | 0.00 | 0.00 | 0.00 | 92 | 1009.4 |
| 20260505080054 | 45 | 193 | 0.0 | 0.0 | 0.00 | 0.00 | 0.00 | 92 | 1009.4 |
| 20260505074548 | 45 | 193 | 0.0 | 0.0 | 0.00 | 0.00 | 0.00 | 92 | 1009.3 |
| 20260505073055 | 45 | 193 | 0.0 | 0.0 | 0.00 | 0.00 | 0.00 | 92 | 1009.4 |
| 20260505071546 | 45 | 193 | 0.0 | 1.0 | 0.00 | 0.00 | 0.00 | 91 | 1009.4 |
| 20260505070045 | 45 | 193 | 0.0 | 0.0 | 0.00 | 0.00 | 0.00 | 91 | 1009.4 |
| 20260505064610 | 45 | 193 | 0.0 | 0.0 | 0.00 | 0.00 | 0.00 | 91 | 1009.4 |
| 20260505063042 | 45 | 193 | 0.0 | 0.0 | 0.00 | 0.00 | 0.00 | 90 | 1009.7 |
| 20260505061541 | 45 | 193 | 0.0 | 0.0 | 0.00 | 0.00 | 0.00 | 90 | 1009.6 |
| 20260505060038 | 46 | 193 | 0.0 | 0.0 | 0.00 | 0.00 | 0.00 | 89 | 1009.6 |
| 20260505054546 | 46 | 193 | 0.0 | 0.0 | 0.00 | 0.00 | 0.00 | 89 | 1009.8 |
| 20260505053035 | 46 | 193 | 0.0 | 0.0 | 0.00 | 0.00 | 0.00 | 88 | 1009.7 |
| 20260505051533 | 47 | 193 | 0.0 | 0.0 | 0.00 | 0.00 | 0.00 | 88 | 1009.9 |
| 20260505041525 | 48 | 193 | 0.0 | 0.0 | 0.00 | 0.00 | 0.00 | 84 | 1010.1 |
| 20260505040023 | 49 | 193 | 0.0 | 0.0 | 0.00 | 0.00 | 0.00 | 82 | 1010.0 |
| 20260505034526 | 50 | 193 | 0.0 | 0.0 | 0.00 | 0.00 | 0.00 | 81 | 1010.0 |
| 20260505033022 | 50 | 193 | 0.0 | 0.0 | 0.00 | 0.00 | 0.00 | 80 | 1010.0 |
| 20260505031521 | 51 | 193 | 0.0 | 0.0 | 0.00 | 0.00 | 0.00 | 78 | 1010.2 |
| 20260505030037 | 52 | 193 | 0.0 | 0.0 | 0.00 | 0.00 | 0.00 | 76 | 1010.2 |
| 20260505024521 | 52 | 193 | 0.0 | 0.0 | 0.00 | 0.00 | 0.00 | 75 | 1010.2 |
| 20260505023020 | 54 | 193 | 0.0 | 0.0 | 0.00 | 0.00 | 0.00 | 71 | 1010.1 |
| 20260505021522 | 55 | 193 | 0.0 | 0.0 | 0.00 | 0.00 | 0.00 | 68 | 1010.1 |
| 20260505020020 | 56 | 193 | 0.0 | 0.0 | 0.00 | 0.00 | 0.00 | 66 | 1010.1 |
| 20260505014522 | 57 | 193 | 0.0 | 0.0 | 0.00 | 0.00 | 0.00 | 64 | 1009.8 |